Time,TemperatureF,DewpointF,PressureIn,WindDirection,WindDirectionDegrees,WindSpeedMPH,WindSpeedGustMPH,Humidity,HourlyPrecipIn,Conditions,Clouds,dailyrainin,SoftwareType,DateUTC
2013-04-02 00:00:00,53.0,39.1,29.95,West,279,0.0,2.0,59,0.00,,,0.01,WeatherCatV1.11B39,2013-04-02 04:00:00,
2013-04-02 00:01:00,52.9,38.5,29.95,West,279,0.0,1.0,58,0.00,,,0.00,WeatherCatV1.11B39,2013-04-02 04:01:00,
2013-04-02 00:06:00,52.5,39.9,29.95,West,279,0.0,0.0,62,0.00,,,0.00,WeatherCatV1.11B39,2013-04-02 04:06:00,
2013-04-02 00:11:00,52.1,38.6,29.95,West,279,0.0,0.0,60,0.00,,,0.00,WeatherCatV1.11B39,2013-04-02 04:11:00,
2013-04-02 00:16:00,51.9,38.9,29.95,West,279,2.0,4.0,61,0.00,,,0.00,WeatherCatV1.11B39,2013-04-02 04:16:00,
2013-04-02 00:21:00,51.6,39.8,29.95,West,279,0.0,4.0,64,0.00,,,0.00,WeatherCatV1.11B39,2013-04-02 04:21:00,
2013-04-02 00:26:00,51.5,39.7,29.95,NNW,331,1.0,1.0,64,0.00,,,0.00,WeatherCatV1.11B39,2013-04-02 04:26:00,
2013-04-02 00:31:00,51.1,39.7,29.94,NNW,331,4.0,4.0,65,0.00,,,0.00,WeatherCatV1.11B39,2013-04-02 04:31:00,
2013-04-02 00:36:00,51.1,38.9,29.94,West,281,5.0,6.0,63,0.00,,,0.00,WeatherCatV1.11B39,2013-04-02 04:36:00,
2013-04-02 00:41:00,51.1,38.9,29.95,West,281,0.0,0.0,63,0.00,,,0.00,WeatherCatV1.11B39,2013-04-02 04:41:00,
2013-04-02 00:46:00,50.7,39.4,29.95,West,281,0.0,0.0,65,0.00,,,0.00,WeatherCatV1.11B39,2013-04-02 04:46:00,
2013-04-02 00:51:00,50.3,39.4,29.95,West,281,0.0,0.0,66,0.00,,,0.00,WeatherCatV1.11B39,2013-04-02 04:51:00,
2013-04-02 00:56:00,50.0,39.9,29.95,West,281,0.0,0.0,68,0.00,,,0.00,WeatherCatV1.11B39,2013-04-02 04:56:00,
2013-04-02 01:01:00,49.6,38.7,29.95,West,281,0.0,0.0,66,0.00,,,0.00,WeatherCatV1.11B39,2013-04-02 05:01:00,
2013-04-02 01:06:00,49.4,38.5,29.95,West,281,0.0,0.0,66,0.00,,,0.00,WeatherCatV1.11B39,2013-04-02 05:06:00,
2013-04-02 01:11:00,49.2,38.7,29.95,West,281,0.0,0.0,67,0.00,,,0.00,WeatherCatV1.11B39,2013-04-02 05:11:00,
2013-04-02 01:16:00,48.9,39.2,29.95,West,281,0.0,1.0,69,0.00,,,0.00,WeatherCatV1.11B39,2013-04-02 05:16:00,
2013-04-02 01:21:00,48.7,38.6,29.95,West,281,0.0,0.0,68,0.00,,,0.00,WeatherCatV1.11B39,2013-04-02 05:21:00,
2013-04-02 01:26:00,48.5,37.7,29.95,West,281,0.0,0.0,66,0.00,,,0.00,WeatherCatV1.11B39,2013-04-02 05:26:00,
2013-04-02 01:31:00,48.5,38.8,29.95,West,281,0.0,0.0,69,0.00,,,0.00,WeatherCatV1.11B39,2013-04-02 05:31:00,
2013-04-02 01:36:00,48.3,38.2,29.95,West,281,0.0,0.0,68,0.00,,,0.00,WeatherCatV1.11B39,2013-04-02 05:36:00,
2013-04-02 01:41:00,48.1,38.8,29.95,West,281,0.0,0.0,70,0.00,,,0.00,WeatherCatV1.11B39,2013-04-02 05:41:00,
2013-04-02 01:46:00,47.8,38.5,29.95,West,281,0.0,0.0,70,0.00,,,0.00,WeatherCatV1.11B39,2013-04-02 05:46:00,
2013-04-02 01:51:00,47.7,38.4,29.95,West,281,0.0,0.0,70,0.00,,,0.00,WeatherCatV1.11B39,2013-04-02 05:51:00,
2013-04-02 01:56:00,47.5,38.2,29.95,West,281,0.0,0.0,70,0.00,,,0.00,WeatherCatV1.11B39,2013-04-02 05:56:00,
2013-04-02 02:01:00,47.3,38.0,29.95,West,281,0.0,0.0,70,0.00,,,0.00,WeatherCatV1.11B39,2013-04-02 06:01:00,
2013-04-02 02:06:00,47.1,37.5,29.95,West,281,2.0,2.0,69,0.00,,,0.00,WeatherCatV1.11B39,2013-04-02 06:06:00,
2013-04-02 02:11:00,46.9,38.0,29.95,West,281,0.0,0.0,71,0.00,,,0.00,WeatherCatV1.11B39,2013-04-02 06:11:00,
2013-04-02 02:16:00,46.8,37.5,29.95,West,281,0.0,2.0,70,0.00,,,0.00,WeatherCatV1.11B39,2013-04-02 06:16:00,
2013-04-02 02:21:00,46.6,37.7,29.94,West,281,0.0,0.0,71,0.00,,,0.00,WeatherCatV1.11B39,2013-04-02 06:21:00,
2013-04-02 02:25:00,46.5,38.3,29.95,West,281,0.0,0.0,73,0.00,,,0.00,WeatherCatV1.11B39,2013-04-02 06:25:00,
2013-04-02 02:30:00,46.3,37.8,29.95,West,281,0.0,0.0,72,0.00,,,0.00,WeatherCatV1.11B39,2013-04-02 06:30:00,
2013-04-02 02:35:00,46.3,37.4,29.95,West,281,0.0,0.0,71,0.00,,,0.00,WeatherCatV1.11B39,2013-04-02 06:35:00,
2013-04-02 02:40:00,46.1,37.9,29.95,West,281,0.0,0.0,73,0.00,,,0.00,WeatherCatV1.11B39,2013-04-02 06:40:00,
2013-04-02 02:45:00,45.9,38.1,29.95,West,281,0.0,0.0,74,0.00,,,0.00,WeatherCatV1.11B39,2013-04-02 06:45:00,
2013-04-02 02:50:00,45.8,38.0,29.95,West,281,0.0,4.0,74,0.00,,,0.00,WeatherCatV1.11B39,2013-04-02 06:50:00,
2013-04-02 02:55:00,45.8,38.3,29.95,West,281,0.0,1.0,75,0.00,,,0.00,WeatherCatV1.11B39,2013-04-02 06:55:00,
2013-04-02 03:00:00,45.6,37.5,29.95,West,281,0.0,0.0,73,0.00,,,0.00,WeatherCatV1.11B39,2013-04-02 07:00:00,
2013-04-02 03:05:00,45.7,36.8,29.96,West,281,0.0,6.0,71,0.00,,,0.00,WeatherCatV1.11B39,2013-04-02 07:05:00,
2013-04-02 03:10:00,46.1,36.9,29.95,West,261,1.0,3.0,70,0.00,,,0.00,WeatherCatV1.11B39,2013-04-02 07:10:00,
2013-04-02 03:15:00,46.5,36.9,29.95,West,261,0.0,0.0,69,0.00,,,0.00,WeatherCatV1.11B39,2013-04-02 07:15:00,
2013-04-02 03:20:00,46.6,37.0,29.95,NW,319,4.0,4.0,69,0.00,,,0.00,WeatherCatV1.11B39,2013-04-02 07:20:00,
2013-04-02 03:25:00,46.7,37.1,29.95,SW,236,2.0,3.0,69,0.00,,,0.00,WeatherCatV1.11B39,2013-04-02 07:25:00,
2013-04-02 03:30:00,46.9,36.9,29.95,SSE,162,2.0,5.0,68,0.00,,,0.00,WeatherCatV1.11B39,2013-04-02 07:30:00,
2013-04-02 03:35:00,47.1,37.1,29.95,SSE,162,2.0,4.0,68,0.00,,,0.00,WeatherCatV1.11B39,2013-04-02 07:35:00,
2013-04-02 03:40:00,46.9,36.9,29.95,SSE,162,1.0,2.0,68,0.00,,,0.00,WeatherCatV1.11B39,2013-04-02 07:40:00,
2013-04-02 03:45:00,46.8,36.4,29.95,SSE,166,2.0,5.0,67,0.00,,,0.00,WeatherCatV1.11B39,2013-04-02 07:45:00,
2013-04-02 03:50:00,47.1,36.7,29.96,SSW,196,1.0,6.0,67,0.00,,,0.00,WeatherCatV1.11B39,2013-04-02 07:50:00,
2013-04-02 03:55:00,47.3,36.5,29.96,SSW,203,2.0,8.0,66,0.00,,,0.00,WeatherCatV1.11B39,2013-04-02 07:55:00,
2013-04-02 04:00:00,47.3,36.5,29.96,SSW,205,0.0,1.0,66,0.00,,,0.00,WeatherCatV1.11B39,2013-04-02 08:00:00,
2013-04-02 04:05:00,47.3,36.5,29.96,SSW,205,0.0,0.0,66,0.00,,,0.00,WeatherCatV1.11B39,2013-04-02 08:05:00,
2013-04-02 04:10:00,47.2,36.4,29.96,SW,226,2.0,4.0,66,0.00,,,0.00,WeatherCatV1.11B39,2013-04-02 08:10:00,
2013-04-02 04:15:00,47.0,36.6,29.97,SW,227,3.0,3.0,67,0.00,,,0.00,WeatherCatV1.11B39,2013-04-02 08:15:00,
2013-04-02 04:20:00,47.1,36.7,29.97,West,272,2.0,5.0,67,0.00,,,0.00,WeatherCatV1.11B39,2013-04-02 08:20:00,
2013-04-02 04:25:00,47.2,36.8,29.97,West,275,7.0,7.0,67,0.00,,,0.00,WeatherCatV1.11B39,2013-04-02 08:25:00,
2013-04-02 04:30:00,47.3,36.5,29.97,West,276,5.0,10.0,66,0.00,,,0.00,WeatherCatV1.11B39,2013-04-02 08:30:00,
2013-04-02 04:35:00,47.4,36.6,29.97,West,278,4.0,6.0,66,0.00,,,0.00,WeatherCatV1.11B39,2013-04-02 08:35:00,
2013-04-02 04:40:00,47.2,36.4,29.97,West,269,4.0,8.0,66,0.00,,,0.00,WeatherCatV1.11B39,2013-04-02 08:40:00,
2013-04-02 04:45:00,47.3,36.1,29.98,West,264,3.0,12.0,65,0.00,,,0.00,WeatherCatV1.11B39,2013-04-02 08:45:00,
2013-04-02 04:50:00,47.4,36.2,29.98,West,281,0.0,6.0,65,0.00,,,0.00,WeatherCatV1.11B39,2013-04-02 08:50:00,
2013-04-02 04:55:00,47.2,36.4,29.98,West,261,4.0,8.0,66,0.00,,,0.00,WeatherCatV1.11B39,2013-04-02 08:55:00,
2013-04-02 05:00:00,47.3,36.5,29.98,West,277,2.0,5.0,66,0.00,,,0.00,WeatherCatV1.11B39,2013-04-02 09:00:00,
2013-04-02 05:05:00,47.1,36.7,29.99,SW,234,7.0,7.0,67,0.00,,,0.00,WeatherCatV1.11B39,2013-04-02 09:05:00,
2013-04-02 05:10:00,46.9,36.1,29.99,WSW,240,4.0,4.0,66,0.00,,,0.00,WeatherCatV1.11B39,2013-04-02 09:10:00,
2013-04-02 05:15:00,46.8,36.0,29.98,SW,236,4.0,6.0,66,0.00,,,0.00,WeatherCatV1.11B39,2013-04-02 09:15:00,
2013-04-02 05:20:00,46.7,36.0,29.98,SW,226,4.0,5.0,66,0.00,,,0.00,WeatherCatV1.11B39,2013-04-02 09:20:00,
2013-04-02 05:25:00,46.4,35.7,29.99,SSW,199,3.0,4.0,66,0.00,,,0.00,WeatherCatV1.11B39,2013-04-02 09:25:00,
2013-04-02 05:30:00,46.3,35.2,29.99,South,173,4.0,6.0,65,0.00,,,0.00,WeatherCatV1.11B39,2013-04-02 09:30:00,
2013-04-02 05:35:00,46.2,35.5,29.99,WSW,239,3.0,4.0,66,0.00,,,0.00,WeatherCatV1.11B39,2013-04-02 09:35:00,
2013-04-02 05:40:00,46.1,35.0,29.99,South,190,4.0,8.0,65,0.00,,,0.00,WeatherCatV1.11B39,2013-04-02 09:40:00,
2013-04-02 05:45:00,46.0,35.3,30.00,South,186,3.0,4.0,66,0.00,,,0.00,WeatherCatV1.11B39,2013-04-02 09:45:00,
2013-04-02 05:50:00,45.9,35.2,30.00,SW,215,1.0,3.0,66,0.00,,,0.00,WeatherCatV1.11B39,2013-04-02 09:50:00,
2013-04-02 05:55:00,45.6,35.7,30.00,SW,215,2.0,3.0,68,0.00,,,0.00,WeatherCatV1.11B39,2013-04-02 09:55:00,
2013-04-02 06:00:00,45.2,34.9,30.00,SW,215,0.0,0.0,67,0.00,,,0.00,WeatherCatV1.11B39,2013-04-02 10:00:00,
2013-04-02 06:05:00,44.9,35.7,30.00,SW,215,0.0,2.0,70,0.00,,,0.00,WeatherCatV1.11B39,2013-04-02 10:05:00,
2013-04-02 06:10:00,44.8,34.5,30.00,SSW,200,1.0,4.0,67,0.00,,,0.00,WeatherCatV1.11B39,2013-04-02 10:10:00,
2013-04-02 06:15:00,44.6,34.3,30.00,South,188,2.0,4.0,67,0.00,,,0.00,WeatherCatV1.11B39,2013-04-02 10:15:00,
2013-04-02 06:20:00,44.4,34.9,30.00,South,190,2.0,3.0,69,0.00,,,0.00,WeatherCatV1.11B39,2013-04-02 10:20:00,
2013-04-02 06:25:00,44.2,35.0,30.01,South,190,3.0,4.0,70,0.00,,,0.00,WeatherCatV1.11B39,2013-04-02 10:25:00,
2013-04-02 06:30:00,44.2,34.7,30.01,South,182,1.0,3.0,69,0.00,,,0.00,WeatherCatV1.11B39,2013-04-02 10:30:00,
2013-04-02 06:35:00,44.3,34.0,30.01,South,181,0.0,1.0,67,0.00,,,0.00,WeatherCatV1.11B39,2013-04-02 10:35:00,
2013-04-02 06:40:00,44.3,33.7,30.02,South,181,0.0,2.0,66,0.00,,,0.00,WeatherCatV1.11B39,2013-04-02 10:40:00,
2013-04-02 06:45:00,44.2,33.6,30.02,South,178,6.0,8.0,66,0.00,,,0.00,WeatherCatV1.11B39,2013-04-02 10:45:00,
2013-04-02 06:50:00,44.1,35.0,30.03,South,184,3.0,3.0,70,0.00,,,0.00,WeatherCatV1.11B39,2013-04-02 10:50:00,
2013-04-02 06:55:00,43.8,34.3,30.03,South,190,2.0,4.0,69,0.00,,,0.00,WeatherCatV1.11B39,2013-04-02 10:55:00,
2013-04-02 07:00:00,43.7,33.1,30.02,South,189,1.0,5.0,66,0.00,,,0.00,WeatherCatV1.11B39,2013-04-02 11:00:00,
2013-04-02 07:05:00,43.5,34.4,30.03,SSW,206,3.0,3.0,70,0.00,,,0.00,WeatherCatV1.11B39,2013-04-02 11:05:00,
2013-04-02 07:10:00,43.2,33.4,30.03,SSW,206,2.0,4.0,68,0.00,,,0.00,WeatherCatV1.11B39,2013-04-02 11:10:00,
2013-04-02 07:15:00,43.1,33.6,30.03,SSW,206,2.0,4.0,69,0.00,,,0.00,WeatherCatV1.11B39,2013-04-02 11:15:00,
2013-04-02 07:20:00,43.0,32.8,30.03,South,169,5.0,6.0,67,0.00,,,0.00,WeatherCatV1.11B39,2013-04-02 11:20:00,
2013-04-02 07:24:00,43.2,32.2,30.04,SSE,168,6.0,8.0,65,0.00,,,0.00,WeatherCatV1.11B39,2013-04-02 11:24:00,
2013-04-02 07:29:00,43.6,32.6,30.04,SSW,192,3.0,8.0,65,0.00,,,0.00,WeatherCatV1.11B39,2013-04-02 11:29:00,
2013-04-02 07:34:00,43.4,32.8,30.04,West,279,0.0,2.0,66,0.00,,,0.00,WeatherCatV1.11B39,2013-04-02 11:34:00,
2013-04-02 07:39:00,43.1,32.5,30.04,South,182,4.0,6.0,66,0.00,,,0.00,WeatherCatV1.11B39,2013-04-02 11:39:00,
2013-04-02 07:44:00,43.2,31.1,30.04,SSW,196,4.0,9.0,62,0.00,,,0.00,WeatherCatV1.11B39,2013-04-02 11:44:00,
2013-04-02 07:49:00,43.4,31.3,30.03,West,275,0.0,4.0,62,0.00,,,0.00,WeatherCatV1.11B39,2013-04-02 11:49:00,
2013-04-02 07:54:00,43.3,31.2,30.04,SW,214,4.0,5.0,62,0.00,,,0.00,WeatherCatV1.11B39,2013-04-02 11:54:00,
2013-04-02 07:59:00,43.0,32.4,30.05,SW,215,2.0,3.0,66,0.00,,,0.00,WeatherCatV1.11B39,2013-04-02 11:59:00,
2013-04-02 08:04:00,42.8,31.1,30.05,SSW,207,2.0,6.0,63,0.00,,,0.00,WeatherCatV1.11B39,2013-04-02 12:04:00,
2013-04-02 08:09:00,43.1,31.0,30.05,SSW,207,1.0,2.0,62,0.00,,,0.00,WeatherCatV1.11B39,2013-04-02 12:09:00,
2013-04-02 08:14:00,43.4,29.2,30.04,SSW,198,0.0,3.0,57,0.00,,,0.00,WeatherCatV1.11B39,2013-04-02 12:14:00,
2013-04-02 08:19:00,43.7,30.3,30.05,SSE,160,2.0,5.0,59,0.00,,,0.00,WeatherCatV1.11B39,2013-04-02 12:19:00,
2013-04-02 08:24:00,44.1,29.0,30.06,SSE,157,7.0,9.0,55,0.00,,,0.00,WeatherCatV1.11B39,2013-04-02 12:24:00,
2013-04-02 08:29:00,44.5,28.4,30.06,South,179,7.0,8.0,53,0.00,,,0.00,WeatherCatV1.11B39,2013-04-02 12:29:00,
2013-04-02 08:34:00,44.8,29.2,30.06,SSE,163,6.0,7.0,54,0.00,,,0.00,WeatherCatV1.11B39,2013-04-02 12:34:00,
2013-04-02 08:39:00,45.0,27.5,30.06,WSW,239,5.0,7.0,50,0.00,,,0.00,WeatherCatV1.11B39,2013-04-02 12:39:00,
2013-04-02 08:44:00,45.3,26.8,30.06,SSE,161,2.0,8.0,48,0.00,,,0.00,WeatherCatV1.11B39,2013-04-02 12:44:00,
2013-04-02 08:49:00,45.5,27.0,30.06,South,177,5.0,12.0,48,0.00,,,0.00,WeatherCatV1.11B39,2013-04-02 12:49:00,
2013-04-02 08:54:00,45.8,27.7,30.07,SE,141,4.0,6.0,49,0.00,,,0.00,WeatherCatV1.11B39,2013-04-02 12:54:00,
2013-04-02 08:59:00,46.0,27.4,30.07,SSW,192,6.0,8.0,48,0.00,,,0.00,WeatherCatV1.11B39,2013-04-02 12:59:00,
2013-04-02 09:04:00,46.3,25.6,30.07,West,263,6.0,10.0,44,0.00,,,0.00,WeatherCatV1.11B39,2013-04-02 13:04:00,
2013-04-02 09:09:00,46.6,25.9,30.07,West,263,6.0,10.0,44,0.00,,,0.00,WeatherCatV1.11B39,2013-04-02 13:09:00,
2013-04-02 09:14:00,46.7,24.8,30.07,West,263,8.0,13.0,42,0.00,,,0.00,WeatherCatV1.11B39,2013-04-02 13:14:00,
2013-04-02 09:19:00,46.9,24.4,30.08,WNW,285,7.0,15.0,41,0.00,,,0.00,WeatherCatV1.11B39,2013-04-02 13:19:00,
2013-04-02 09:24:00,47.0,25.1,30.07,West,278,7.0,12.0,42,0.00,,,0.00,WeatherCatV1.11B39,2013-04-02 13:24:00,
2013-04-02 09:29:00,47.3,24.8,30.07,WSW,251,4.0,8.0,41,0.00,,,0.00,WeatherCatV1.11B39,2013-04-02 13:29:00,
2013-04-02 09:34:00,47.4,24.3,30.07,SSW,211,7.0,10.0,40,0.00,,,0.00,WeatherCatV1.11B39,2013-04-02 13:34:00,
2013-04-02 09:39:00,47.7,24.6,30.07,SW,220,9.0,9.0,40,0.00,,,0.00,WeatherCatV1.11B39,2013-04-02 13:39:00,
2013-04-02 09:44:00,47.9,23.5,30.07,SSW,193,5.0,12.0,38,0.00,,,0.00,WeatherCatV1.11B39,2013-04-02 13:44:00,
2013-04-02 09:49:00,48.1,24.3,30.07,SW,232,6.0,9.0,39,0.00,,,0.00,WeatherCatV1.11B39,2013-04-02 13:49:00,
2013-04-02 09:54:00,48.5,24.1,30.07,WNW,284,8.0,14.0,38,0.00,,,0.00,WeatherCatV1.11B39,2013-04-02 13:54:00,
2013-04-02 09:59:00,48.7,24.9,30.07,WSW,249,5.0,14.0,39,0.00,,,0.00,WeatherCatV1.11B39,2013-04-02 13:59:00,
2013-04-02 10:04:00,49.0,23.9,30.07,West,265,7.0,12.0,37,0.00,,,0.00,WeatherCatV1.11B39,2013-04-02 14:04:00,
2013-04-02 10:09:00,49.4,24.2,30.07,WSW,248,5.0,11.0,37,0.00,,,0.00,WeatherCatV1.11B39,2013-04-02 14:09:00,
2013-04-02 10:14:00,49.8,24.6,30.07,West,279,9.0,12.0,37,0.00,,,0.00,WeatherCatV1.11B39,2013-04-02 14:14:00,
2013-04-02 10:19:00,50.1,22.8,30.08,WSW,254,5.0,12.0,34,0.00,,,0.00,WeatherCatV1.11B39,2013-04-02 14:19:00,
2013-04-02 10:24:00,50.2,24.3,30.08,South,188,4.0,6.0,36,0.00,,,0.00,WeatherCatV1.11B39,2013-04-02 14:24:00,
2013-04-02 10:29:00,50.6,22.6,30.08,SSW,211,7.0,13.0,33,0.00,,,0.00,WeatherCatV1.11B39,2013-04-02 14:29:00,
2013-04-02 10:34:00,50.9,24.2,30.08,SW,233,8.0,10.0,35,0.00,,,0.00,WeatherCatV1.11B39,2013-04-02 14:34:00,
2013-04-02 10:39:00,51.0,21.4,30.08,South,184,10.0,10.0,31,0.00,,,0.00,WeatherCatV1.11B39,2013-04-02 14:39:00,
2013-04-02 10:44:00,51.3,23.2,30.08,West,277,8.0,12.0,33,0.00,,,0.00,WeatherCatV1.11B39,2013-04-02 14:44:00,
2013-04-02 10:49:00,51.7,21.3,30.08,WSW,242,6.0,12.0,30,0.00,,,0.00,WeatherCatV1.11B39,2013-04-02 14:49:00,
2013-04-02 10:54:00,52.1,19.2,30.08,SSW,213,3.0,13.0,27,0.00,,,0.00,WeatherCatV1.11B39,2013-04-02 14:54:00,
2013-04-02 10:59:00,52.6,20.4,30.08,WSW,238,10.0,11.0,28,0.00,,,0.00,WeatherCatV1.11B39,2013-04-02 14:59:00,
2013-04-02 11:04:00,52.7,18.8,30.08,West,263,11.0,18.0,26,0.00,,,0.00,WeatherCatV1.11B39,2013-04-02 15:04:00,
2013-04-02 11:09:00,53.0,18.1,30.08,SW,219,6.0,10.0,25,0.00,,,0.00,WeatherCatV1.11B39,2013-04-02 15:09:00,
2013-04-02 11:14:00,53.4,16.5,30.08,WNW,282,13.0,14.0,23,0.00,,,0.00,WeatherCatV1.11B39,2013-04-02 15:14:00,
2013-04-02 11:19:00,53.5,17.6,30.08,West,268,5.0,12.0,24,0.00,,,0.00,WeatherCatV1.11B39,2013-04-02 15:19:00,
2013-04-02 11:24:00,53.7,18.7,30.08,WSW,254,6.0,11.0,25,0.00,,,0.00,WeatherCatV1.11B39,2013-04-02 15:24:00,
2013-04-02 11:29:00,53.9,21.6,30.08,SW,221,7.0,12.0,28,0.00,,,0.00,WeatherCatV1.11B39,2013-04-02 15:29:00,
2013-04-02 11:34:00,54.0,19.0,30.08,WSW,244,6.0,10.0,25,0.00,,,0.00,WeatherCatV1.11B39,2013-04-02 15:34:00,
2013-04-02 11:39:00,54.3,19.2,30.08,WNW,284,9.0,10.0,25,0.00,,,0.00,WeatherCatV1.11B39,2013-04-02 15:39:00,
2013-04-02 11:44:00,54.3,17.3,30.07,West,265,2.0,6.0,23,0.00,,,0.00,WeatherCatV1.11B39,2013-04-02 15:44:00,
2013-04-02 11:49:00,54.6,18.5,30.08,WSW,240,3.0,8.0,24,0.00,,,0.00,WeatherCatV1.11B39,2013-04-02 15:49:00,
2013-04-02 11:54:00,55.2,20.0,30.08,WNW,297,11.0,16.0,25,0.00,,,0.00,WeatherCatV1.11B39,2013-04-02 15:54:00,
2013-04-02 11:59:00,55.3,19.1,30.08,WNW,298,13.0,14.0,24,0.00,,,0.00,WeatherCatV1.11B39,2013-04-02 15:59:00,
2013-04-02 12:04:00,55.4,18.2,30.08,NW,308,6.0,14.0,23,0.00,,,0.00,WeatherCatV1.11B39,2013-04-02 16:04:00,
2013-04-02 12:09:00,55.5,20.3,30.08,SW,218,3.0,6.0,25,0.00,,,0.00,WeatherCatV1.11B39,2013-04-02 16:09:00,
2013-04-02 12:14:00,56.1,20.8,30.08,SW,236,11.0,12.0,25,0.00,,,0.00,WeatherCatV1.11B39,2013-04-02 16:14:00,
2013-04-02 12:19:00,56.2,18.9,30.07,West,273,6.0,12.0,23,0.00,,,0.00,WeatherCatV1.11B39,2013-04-02 16:19:00,
2013-04-02 12:24:00,56.1,25.1,30.07,South,175,8.0,11.0,30,0.00,,,0.00,WeatherCatV1.11B39,2013-04-02 16:24:00,
2013-04-02 12:28:00,56.2,20.9,30.07,NW,325,1.0,13.0,25,0.00,,,0.00,WeatherCatV1.11B39,2013-04-02 16:28:00,
2013-04-02 12:33:00,56.6,21.2,30.07,SSW,201,1.0,7.0,25,0.00,,,0.00,WeatherCatV1.11B39,2013-04-02 16:33:00,
2013-04-02 12:38:00,56.9,21.5,30.07,West,281,7.0,7.0,25,0.00,,,0.00,WeatherCatV1.11B39,2013-04-02 16:38:00,
2013-04-02 12:43:00,56.7,22.2,30.06,West,265,11.0,12.0,26,0.00,,,0.00,WeatherCatV1.11B39,2013-04-02 16:43:00,
2013-04-02 12:48:00,56.4,22.0,30.06,NW,307,6.0,15.0,26,0.00,,,0.00,WeatherCatV1.11B39,2013-04-02 16:48:00,
2013-04-02 12:53:00,56.9,24.1,30.05,WNW,298,7.0,11.0,28,0.00,,,0.00,WeatherCatV1.11B39,2013-04-02 16:53:00,
2013-04-02 12:58:00,57.7,23.1,30.05,West,275,7.0,13.0,26,0.00,,,0.00,WeatherCatV1.11B39,2013-04-02 16:58:00,
2013-04-02 13:03:00,57.9,24.1,30.05,SSW,198,8.0,11.0,27,0.00,,,0.00,WeatherCatV1.11B39,2013-04-02 17:03:00,
2013-04-02 13:08:00,58.1,23.4,30.06,WSW,240,6.0,13.0,26,0.00,,,0.00,WeatherCatV1.11B39,2013-04-02 17:08:00,
2013-04-02 13:13:00,58.2,22.6,30.05,WNW,301,6.0,12.0,25,0.00,,,0.00,WeatherCatV1.11B39,2013-04-02 17:13:00,
2013-04-02 13:18:00,58.6,21.9,30.05,SSW,198,12.0,17.0,24,0.00,,,0.00,WeatherCatV1.11B39,2013-04-02 17:18:00,
2013-04-02 13:23:00,58.8,21.1,30.06,West,261,12.0,13.0,23,0.00,,,0.00,WeatherCatV1.11B39,2013-04-02 17:23:00,
2013-04-02 13:28:00,58.9,22.2,30.05,West,274,13.0,16.0,24,0.00,,,0.00,WeatherCatV1.11B39,2013-04-02 17:28:00,
2013-04-02 13:33:00,58.7,20.0,30.05,West,263,8.0,16.0,22,0.00,,,0.00,WeatherCatV1.11B39,2013-04-02 17:33:00,
2013-04-02 13:38:00,58.6,18.8,30.05,WSW,246,5.0,17.0,21,0.00,,,0.00,WeatherCatV1.11B39,2013-04-02 17:38:00,
2013-04-02 13:43:00,59.4,19.5,30.05,SSE,162,4.0,16.0,21,0.00,,,0.00,WeatherCatV1.11B39,2013-04-02 17:43:00,
2013-04-02 13:48:00,59.5,18.4,30.05,WSW,256,4.0,11.0,20,0.00,,,0.00,WeatherCatV1.11B39,2013-04-02 17:48:00,
2013-04-02 13:53:00,59.4,19.5,30.05,West,268,11.0,14.0,21,0.00,,,0.00,WeatherCatV1.11B39,2013-04-02 17:53:00,
2013-04-02 13:58:00,58.9,17.9,30.04,WNW,302,8.0,15.0,20,0.00,,,0.00,WeatherCatV1.11B39,2013-04-02 17:58:00,
2013-04-02 14:03:00,59.2,19.3,30.04,WNW,282,7.0,12.0,21,0.00,,,0.00,WeatherCatV1.11B39,2013-04-02 18:03:00,
2013-04-02 14:08:00,59.7,18.6,30.03,South,186,7.0,10.0,20,0.00,,,0.00,WeatherCatV1.11B39,2013-04-02 18:08:00,
2013-04-02 14:13:00,59.6,18.5,30.03,NW,310,11.0,16.0,20,0.00,,,0.00,WeatherCatV1.11B39,2013-04-02 18:13:00,
2013-04-02 14:18:00,59.4,21.6,30.03,SW,227,11.0,11.0,23,0.00,,,0.00,WeatherCatV1.11B39,2013-04-02 18:18:00,
2013-04-02 14:23:00,60.1,20.0,30.03,WNW,302,2.0,8.0,21,0.00,,,0.00,WeatherCatV1.11B39,2013-04-02 18:23:00,
2013-04-02 14:28:00,60.0,17.6,30.03,WNW,285,19.0,20.0,19,0.00,,,0.00,WeatherCatV1.11B39,2013-04-02 18:28:00,
2013-04-02 14:33:00,60.0,20.0,30.03,SW,230,8.0,13.0,21,0.00,,,0.00,WeatherCatV1.11B39,2013-04-02 18:33:00,
2013-04-02 14:38:00,60.5,20.4,30.03,West,269,11.0,18.0,21,0.00,,,0.00,WeatherCatV1.11B39,2013-04-02 18:38:00,
2013-04-02 14:43:00,60.5,19.2,30.02,West,263,10.0,14.0,20,0.00,,,0.00,WeatherCatV1.11B39,2013-04-02 18:43:00,
2013-04-02 14:48:00,60.6,20.5,30.02,West,270,9.0,9.0,21,0.00,,,0.00,WeatherCatV1.11B39,2013-04-02 18:48:00,
2013-04-02 14:53:00,60.7,21.6,30.02,SW,215,5.0,12.0,22,0.00,,,0.00,WeatherCatV1.11B39,2013-04-02 18:53:00,
2013-04-02 14:58:00,60.5,21.5,30.02,SW,228,4.0,18.0,22,0.00,,,0.00,WeatherCatV1.11B39,2013-04-02 18:58:00,
2013-04-02 15:03:00,60.3,21.3,30.02,NW,304,8.0,23.0,22,0.00,,,0.00,WeatherCatV1.11B39,2013-04-02 19:03:00,
2013-04-02 15:08:00,60.2,22.3,30.02,NNW,348,8.0,9.0,23,0.00,,,0.00,WeatherCatV1.11B39,2013-04-02 19:08:00,
2013-04-02 15:13:00,60.5,22.5,30.02,West,281,6.0,23.0,23,0.00,,,0.00,WeatherCatV1.11B39,2013-04-02 19:13:00,
2013-04-02 15:18:00,60.8,23.8,30.01,West,269,3.0,14.0,24,0.00,,,0.00,WeatherCatV1.11B39,2013-04-02 19:18:00,
2013-04-02 15:23:00,61.4,26.2,30.01,WNW,288,9.0,15.0,26,0.00,,,0.00,WeatherCatV1.11B39,2013-04-02 19:23:00,
2013-04-02 15:28:00,61.7,26.5,30.01,WSW,244,6.0,19.0,26,0.00,,,0.00,WeatherCatV1.11B39,2013-04-02 19:28:00,
2013-04-02 15:33:00,62.0,27.6,30.01,NW,308,8.0,12.0,27,0.00,,,0.00,WeatherCatV1.11B39,2013-04-02 19:33:00,
2013-04-02 15:38:00,62.3,27.9,30.01,SW,236,7.0,9.0,27,0.00,,,0.00,WeatherCatV1.11B39,2013-04-02 19:38:00,
2013-04-02 15:43:00,62.0,26.7,30.01,WSW,258,6.0,12.0,26,0.00,,,0.00,WeatherCatV1.11B39,2013-04-02 19:43:00,
2013-04-02 15:48:00,62.0,26.7,30.00,West,279,9.0,11.0,26,0.00,,,0.00,WeatherCatV1.11B39,2013-04-02 19:48:00,
2013-04-02 15:53:00,62.2,29.6,30.01,WNW,299,11.0,11.0,29,0.00,,,0.00,WeatherCatV1.11B39,2013-04-02 19:53:00,
2013-04-02 15:58:00,62.6,29.0,30.01,SW,223,5.0,15.0,28,0.00,,,0.00,WeatherCatV1.11B39,2013-04-02 19:58:00,
2013-04-02 16:03:00,62.8,28.3,30.00,WNW,296,6.0,16.0,27,0.00,,,0.00,WeatherCatV1.11B39,2013-04-02 20:03:00,
2013-04-02 16:08:00,63.1,29.5,30.00,West,274,7.0,10.0,28,0.00,,,0.00,WeatherCatV1.11B39,2013-04-02 20:08:00,
2013-04-02 16:13:00,63.2,28.7,30.00,SW,217,6.0,11.0,27,0.00,,,0.00,WeatherCatV1.11B39,2013-04-02 20:13:00,
2013-04-02 16:18:00,63.0,26.6,30.00,West,261,6.0,16.0,25,0.00,,,0.00,WeatherCatV1.11B39,2013-04-02 20:18:00,
2013-04-02 16:23:00,62.9,26.5,29.99,West,265,15.0,16.0,25,0.00,,,0.00,WeatherCatV1.11B39,2013-04-02 20:23:00,
2013-04-02 16:28:00,63.1,32.0,29.99,South,178,8.0,12.0,31,0.00,,,0.00,WeatherCatV1.11B39,2013-04-02 20:28:00,
2013-04-02 16:33:00,63.2,26.8,29.99,WSW,257,10.0,11.0,25,0.00,,,0.00,WeatherCatV1.11B39,2013-04-02 20:33:00,
2013-04-02 16:38:00,63.3,28.8,29.99,South,184,4.0,15.0,27,0.00,,,0.00,WeatherCatV1.11B39,2013-04-02 20:38:00,
2013-04-02 16:43:00,63.4,27.0,29.99,WNW,296,8.0,13.0,25,0.00,,,0.00,WeatherCatV1.11B39,2013-04-02 20:43:00,
2013-04-02 16:48:00,62.8,27.4,29.99,WSW,246,4.0,8.0,26,0.00,,,0.00,WeatherCatV1.11B39,2013-04-02 20:48:00,
2013-04-02 16:53:00,62.5,27.2,29.99,West,280,11.0,15.0,26,0.00,,,0.00,WeatherCatV1.11B39,2013-04-02 20:53:00,
2013-04-02 16:58:00,62.2,26.9,29.99,WNW,284,5.0,6.0,26,0.00,,,0.00,WeatherCatV1.11B39,2013-04-02 20:58:00,
2013-04-02 17:03:00,62.1,26.8,29.99,NW,309,4.0,6.0,26,0.00,,,0.00,WeatherCatV1.11B39,2013-04-02 21:03:00,
2013-04-02 17:08:00,62.0,26.7,29.99,WNW,286,7.0,11.0,26,0.00,,,0.00,WeatherCatV1.11B39,2013-04-02 21:08:00,
2013-04-02 17:13:00,61.9,26.6,29.99,WNW,300,11.0,16.0,26,0.00,,,0.00,WeatherCatV1.11B39,2013-04-02 21:13:00,
2013-04-02 17:18:00,61.7,26.5,29.99,WNW,282,6.0,9.0,26,0.00,,,0.00,WeatherCatV1.11B39,2013-04-02 21:18:00,
2013-04-02 17:23:00,61.8,28.4,29.99,West,277,4.0,7.0,28,0.00,,,0.00,WeatherCatV1.11B39,2013-04-02 21:23:00,
2013-04-02 17:27:00,62.4,28.9,29.99,WNW,294,12.0,12.0,28,0.00,,,0.00,WeatherCatV1.11B39,2013-04-02 21:27:00,
2013-04-02 17:32:00,62.7,28.2,29.99,WNW,287,4.0,7.0,27,0.00,,,0.00,WeatherCatV1.11B39,2013-04-02 21:32:00,
2013-04-02 17:37:00,62.7,27.3,29.99,WNW,287,2.0,8.0,26,0.00,,,0.00,WeatherCatV1.11B39,2013-04-02 21:37:00,
2013-04-02 17:42:00,62.9,28.4,29.98,WSW,239,6.0,6.0,27,0.00,,,0.00,WeatherCatV1.11B39,2013-04-02 21:42:00,
2013-04-02 17:47:00,62.6,28.2,29.99,WSW,257,7.0,15.0,27,0.00,,,0.00,WeatherCatV1.11B39,2013-04-02 21:47:00,
2013-04-02 17:52:00,62.2,26.9,29.99,West,279,7.0,13.0,26,0.00,,,0.00,WeatherCatV1.11B39,2013-04-02 21:52:00,
2013-04-02 17:57:00,61.9,27.6,29.99,NW,304,11.0,13.0,27,0.00,,,0.00,WeatherCatV1.11B39,2013-04-02 21:57:00,
2013-04-02 18:02:00,61.6,27.3,29.99,NW,304,6.0,12.0,27,0.00,,,0.00,WeatherCatV1.11B39,2013-04-02 22:02:00,
2013-04-02 18:07:00,61.2,27.8,30.00,WNW,292,2.0,13.0,28,0.00,,,0.00,WeatherCatV1.11B39,2013-04-02 22:07:00,
2013-04-02 18:12:00,61.0,26.8,29.99,NNW,338,5.0,16.0,27,0.00,,,0.00,WeatherCatV1.11B39,2013-04-02 22:12:00,
2013-04-02 18:17:00,60.8,27.5,29.99,West,272,11.0,12.0,28,0.00,,,0.00,WeatherCatV1.11B39,2013-04-02 22:17:00,
2013-04-02 18:22:00,60.6,27.3,30.00,West,279,6.0,11.0,28,0.00,,,0.00,WeatherCatV1.11B39,2013-04-02 22:22:00,
2013-04-02 18:27:00,60.5,27.2,30.00,West,261,8.0,14.0,28,0.00,,,0.00,WeatherCatV1.11B39,2013-04-02 22:27:00,
2013-04-02 18:32:00,60.6,27.3,30.00,West,268,6.0,13.0,28,0.00,,,0.00,WeatherCatV1.11B39,2013-04-02 22:32:00,
2013-04-02 18:37:00,61.0,27.7,30.00,West,267,3.0,12.0,28,0.00,,,0.00,WeatherCatV1.11B39,2013-04-02 22:37:00,
2013-04-02 18:42:00,61.0,27.7,30.00,NW,312,11.0,12.0,28,0.00,,,0.00,WeatherCatV1.11B39,2013-04-02 22:42:00,
2013-04-02 18:47:00,61.1,27.8,30.00,West,265,6.0,13.0,28,0.00,,,0.00,WeatherCatV1.11B39,2013-04-02 22:47:00,
2013-04-02 18:52:00,61.1,26.9,30.01,West,281,8.0,16.0,27,0.00,,,0.00,WeatherCatV1.11B39,2013-04-02 22:52:00,
2013-04-02 18:57:00,60.8,25.7,30.01,WNW,298,13.0,16.0,26,0.00,,,0.00,WeatherCatV1.11B39,2013-04-02 22:57:00,
2013-04-02 19:02:00,60.1,26.0,30.01,West,272,7.0,12.0,27,0.00,,,0.00,WeatherCatV1.11B39,2013-04-02 23:02:00,
2013-04-02 19:07:00,59.5,25.5,30.01,WSW,257,7.0,11.0,27,0.00,,,0.00,WeatherCatV1.11B39,2013-04-02 23:07:00,
2013-04-02 19:12:00,59.1,24.3,30.02,NNW,334,8.0,8.0,26,0.00,,,0.00,WeatherCatV1.11B39,2013-04-02 23:12:00,
2013-04-02 19:17:00,58.9,24.1,30.02,WNW,288,8.0,9.0,26,0.00,,,0.00,WeatherCatV1.11B39,2013-04-02 23:17:00,
2013-04-02 19:22:00,58.6,23.8,30.02,WSW,255,5.0,8.0,26,0.00,,,0.00,WeatherCatV1.11B39,2013-04-02 23:22:00,
2013-04-02 19:27:00,58.5,23.7,30.02,NW,315,9.0,11.0,26,0.00,,,0.00,WeatherCatV1.11B39,2013-04-02 23:27:00,
2013-04-02 19:32:00,58.4,22.7,30.02,WSW,237,5.0,9.0,25,0.00,,,0.00,WeatherCatV1.11B39,2013-04-02 23:32:00,
2013-04-02 19:37:00,58.1,22.5,30.02,West,268,10.0,13.0,25,0.00,,,0.00,WeatherCatV1.11B39,2013-04-02 23:37:00,
2013-04-02 19:42:00,57.8,21.3,30.02,West,274,8.0,13.0,24,0.00,,,0.00,WeatherCatV1.11B39,2013-04-02 23:42:00,
2013-04-02 19:47:00,57.5,17.9,30.03,WNW,298,6.0,18.0,21,0.00,,,0.00,WeatherCatV1.11B39,2013-04-02 23:47:00,
2013-04-02 19:52:00,57.1,18.6,30.03,WSW,249,12.0,13.0,22,0.00,,,0.00,WeatherCatV1.11B39,2013-04-02 23:52:00,
2013-04-02 19:57:00,56.8,18.4,30.03,WSW,253,12.0,13.0,22,0.00,,,0.00,WeatherCatV1.11B39,2013-04-02 23:57:00,
2013-04-02 20:02:00,56.5,19.2,30.03,WSW,257,10.0,13.0,23,0.00,,,0.00,WeatherCatV1.11B39,2013-04-03 00:02:00,
2013-04-02 20:07:00,56.3,20.0,30.03,West,281,11.0,13.0,24,0.00,,,0.00,WeatherCatV1.11B39,2013-04-03 00:07:00,
2013-04-02 20:12:00,56.1,20.8,30.03,WNW,297,2.0,7.0,25,0.00,,,0.00,WeatherCatV1.11B39,2013-04-03 00:12:00,
2013-04-02 20:17:00,55.9,17.6,30.04,WNW,285,4.0,10.0,22,0.00,,,0.00,WeatherCatV1.11B39,2013-04-03 00:17:00,
2013-04-02 20:22:00,55.6,16.3,30.04,SW,236,8.0,13.0,21,0.00,,,0.00,WeatherCatV1.11B39,2013-04-03 00:22:00,
2013-04-02 20:27:00,55.4,15.0,30.04,West,274,12.0,14.0,20,0.00,,,0.00,WeatherCatV1.11B39,2013-04-03 00:27:00,
2013-04-02 20:32:00,55.1,14.8,30.04,West,271,6.0,9.0,20,0.00,,,0.00,WeatherCatV1.11B39,2013-04-03 00:32:00,
2013-04-02 20:37:00,55.0,14.7,30.04,WSW,247,5.0,6.0,20,0.00,,,0.00,WeatherCatV1.11B39,2013-04-03 00:37:00,
2013-04-02 20:42:00,54.8,15.6,30.04,SW,232,7.0,12.0,21,0.00,,,0.00,WeatherCatV1.11B39,2013-04-03 00:42:00,
2013-04-02 20:47:00,54.7,15.5,30.04,WNW,291,14.0,14.0,21,0.00,,,0.00,WeatherCatV1.11B39,2013-04-03 00:47:00,
2013-04-02 20:52:00,54.6,16.5,30.05,West,263,1.0,14.0,22,0.00,,,0.00,WeatherCatV1.11B39,2013-04-03 00:52:00,
2013-04-02 20:57:00,54.4,18.4,30.04,West,269,7.0,14.0,24,0.00,,,0.00,WeatherCatV1.11B39,2013-04-03 00:57:00,
2013-04-02 21:02:00,54.2,20.1,30.05,West,271,5.0,8.0,26,0.00,,,0.00,WeatherCatV1.11B39,2013-04-03 01:02:00,
2013-04-02 21:07:00,54.0,19.0,30.05,WNW,283,7.0,11.0,25,0.00,,,0.00,WeatherCatV1.11B39,2013-04-03 01:07:00,
2013-04-02 21:12:00,53.9,19.8,30.05,WNW,282,5.0,9.0,26,0.00,,,0.00,WeatherCatV1.11B39,2013-04-03 01:12:00,
2013-04-02 21:17:00,53.7,20.5,30.05,WNW,288,5.0,6.0,27,0.00,,,0.00,WeatherCatV1.11B39,2013-04-03 01:17:00,
2013-04-02 21:22:00,53.6,20.4,30.05,WSW,240,3.0,3.0,27,0.00,,,0.00,WeatherCatV1.11B39,2013-04-03 01:22:00,
2013-04-02 21:27:00,53.5,21.2,30.05,WSW,240,0.0,0.0,28,0.00,,,0.00,WeatherCatV1.11B39,2013-04-03 01:27:00,
2013-04-02 21:32:00,53.3,21.9,30.05,SW,232,3.0,3.0,29,0.00,,,0.00,WeatherCatV1.11B39,2013-04-03 01:32:00,
2013-04-02 21:37:00,53.1,21.7,30.05,SW,215,1.0,3.0,29,0.00,,,0.00,WeatherCatV1.11B39,2013-04-03 01:37:00,
2013-04-02 21:42:00,52.9,22.3,30.05,SW,215,2.0,2.0,30,0.00,,,0.00,WeatherCatV1.11B39,2013-04-03 01:42:00,
2013-04-02 21:47:00,52.7,22.9,30.05,SW,216,1.0,3.0,31,0.00,,,0.00,WeatherCatV1.11B39,2013-04-03 01:47:00,
2013-04-02 21:52:00,52.6,26.4,30.05,SW,217,0.0,1.0,36,0.00,,,0.00,WeatherCatV1.11B39,2013-04-03 01:52:00,
2013-04-02 21:57:00,52.5,25.6,30.05,SW,217,2.0,2.0,35,0.00,,,0.00,WeatherCatV1.11B39,2013-04-03 01:57:00,
2013-04-02 22:02:00,52.4,26.9,30.06,SW,218,3.0,3.0,37,0.00,,,0.00,WeatherCatV1.11B39,2013-04-03 02:02:00,
2013-04-02 22:07:00,52.3,24.1,30.05,SW,225,2.0,4.0,33,0.00,,,0.00,WeatherCatV1.11B39,2013-04-03 02:07:00,
2013-04-02 22:12:00,52.3,23.3,30.05,SW,230,0.0,4.0,32,0.00,,,0.00,WeatherCatV1.11B39,2013-04-03 02:12:00,
2013-04-02 22:17:00,52.3,26.1,30.05,SW,230,0.0,0.0,36,0.00,,,0.00,WeatherCatV1.11B39,2013-04-03 02:17:00,
2013-04-02 22:22:00,52.2,23.2,30.05,SW,230,0.0,0.0,32,0.00,,,0.00,WeatherCatV1.11B39,2013-04-03 02:22:00,
2013-04-02 22:27:00,52.1,23.9,30.05,SW,230,0.0,0.0,33,0.00,,,0.00,WeatherCatV1.11B39,2013-04-03 02:27:00,
2013-04-02 22:32:00,52.0,26.5,30.06,SW,231,2.0,3.0,37,0.00,,,0.00,WeatherCatV1.11B39,2013-04-03 02:32:00,
2013-04-02 22:37:00,52.0,24.5,30.06,WNW,290,0.0,0.0,34,0.00,,,0.00,WeatherCatV1.11B39,2013-04-03 02:37:00,
2013-04-02 22:42:00,52.0,25.2,30.06,WNW,290,0.0,0.0,35,0.00,,,0.00,WeatherCatV1.11B39,2013-04-03 02:42:00,
2013-04-02 22:47:00,51.9,28.3,30.06,WNW,290,0.0,0.0,40,0.00,,,0.00,WeatherCatV1.11B39,2013-04-03 02:47:00,
2013-04-02 22:52:00,51.8,26.4,30.06,WNW,290,1.0,4.0,37,0.00,,,0.00,WeatherCatV1.11B39,2013-04-03 02:52:00,
2013-04-02 22:57:00,51.8,25.7,30.06,WNW,290,0.0,1.0,36,0.00,,,0.00,WeatherCatV1.11B39,2013-04-03 02:57:00,
2013-04-02 23:02:00,51.8,26.4,30.06,WNW,290,0.0,2.0,37,0.00,,,0.00,WeatherCatV1.11B39,2013-04-03 03:02:00,
2013-04-02 23:07:00,51.7,25.6,30.05,WNW,290,0.0,0.0,36,0.00,,,0.00,WeatherCatV1.11B39,2013-04-03 03:07:00,
2013-04-02 23:12:00,51.5,26.1,30.05,WNW,290,0.0,1.0,37,0.00,,,0.00,WeatherCatV1.11B39,2013-04-03 03:12:00,
2013-04-02 23:17:00,51.5,26.7,30.06,WNW,290,0.0,0.0,38,0.00,,,0.00,WeatherCatV1.11B39,2013-04-03 03:17:00,
2013-04-02 23:22:00,51.3,27.8,30.06,WNW,290,0.0,0.0,40,0.00,,,0.00,WeatherCatV1.11B39,2013-04-03 03:22:00,
2013-04-02 23:27:00,51.1,28.2,30.06,WNW,290,0.0,1.0,41,0.00,,,0.00,WeatherCatV1.11B39,2013-04-03 03:27:00,
2013-04-02 23:32:00,50.9,27.4,30.06,WNW,290,4.0,4.0,40,0.00,,,0.00,WeatherCatV1.11B39,2013-04-03 03:32:00,
2013-04-02 23:37:00,50.8,25.5,30.06,WSW,251,2.0,4.0,37,0.00,,,0.00,WeatherCatV1.11B39,2013-04-03 03:37:00,
2013-04-02 23:42:00,51.0,22.9,30.06,West,273,4.0,7.0,33,0.00,,,0.00,WeatherCatV1.11B39,2013-04-03 03:42:00,
2013-04-02 23:47:00,51.1,25.1,30.06,West,270,1.0,2.0,36,0.00,,,0.00,WeatherCatV1.11B39,2013-04-03 03:47:00,
2013-04-02 23:52:00,51.2,25.2,30.06,SW,227,0.0,3.0,36,0.00,,,0.00,WeatherCatV1.11B39,2013-04-03 03:52:00,
2013-04-02 23:57:00,51.2,25.2,30.06,SW,228,3.0,3.0,36,0.00,,,0.00,WeatherCatV1.11B39,2013-04-03 03:57:00,